[[{"header":{"parameterUnit":"m.s-1","parameterCategory":1,"la1":30.2992,"la2":30.254,"lo1":-89.0895,"lo2":-89.0443,"dy":0.0025,"dx":0.0025,"nx":19,"ny":19,"refTime":"2026-05-05T21:00:00:Z","depth":0,"parameterNumber":2,"parameterNumberName":"U-component_of_WINDS"},"data":[0,0,0,-2.1259,-2.1259,-2.1273,-2.1273,-2.1289,-2.1289,0,0,0,0,0,0,0,0,0,0,0,-2.1254,-2.1254,-2.1259,-2.1259,-2.1273,-2.1273,-2.1289,-2.1289,0,0,0,0,0,0,0,0,0,0,0,-2.1253,-2.1254,-2.1254,-2.1259,-2.1273,-2.1273,-2.1289,-2.1279,0,0,0,0,0,0,0,0,0,0,-2.1266,-2.126,-2.1254,-2.1254,-2.1259,-2.1273,-2.1273,-2.1279,-2.128,-2.1282,0,-2.1283,0,-2.1287,-2.129,-2.129,0,0,0,-2.126,-2.1259,-2.1264,-2.1254,-2.1259,-2.1273,-2.1267,-2.1279,-2.1281,-2.1283,-2.1284,-2.1284,-2.1287,-2.129,-2.129,-2.13,-2.13,0,0,-2.1259,-2.1255,-2.1263,-2.1265,-2.1262,-2.1267,-2.1268,-2.128,-2.128,-2.1284,-2.1285,-2.1287,-2.129,-2.1291,-2.13,-2.13,0,0,0,-2.1257,-2.1255,-2.1259,-2.1264,-2.1267,-2.1267,-2.1268,-2.128,-2.1282,-2.1285,-2.1287,-2.1291,-2.1291,-2.13,-2.13,-2.1296,0,0,0,-2.1256,-2.1253,-2.1259,-2.1257,-2.1266,-2.1273,-2.1267,-2.1281,-2.1282,-2.1287,-2.1291,-2.1291,-2.13,-2.13,-2.1296,-2.1294,0,0,0,-2.1253,-2.1253,-2.1254,-2.1256,-2.1262,-2.1273,-2.1276,-2.1281,-2.1284,-2.129,-2.1291,-2.13,-2.13,-2.1296,-2.1294,-2.1296,0,0,0,-2.1248,-2.125,-2.1254,-2.1257,-2.1262,-2.1271,-2.1276,-2.1282,-2.1287,-2.1291,-2.13,-2.13,-2.1296,-2.1295,-2.1296,-2.1295,-2.1295,0,0,-2.1248,-2.125,-2.1252,-2.1256,-2.1263,-2.1269,-2.1275,-2.1284,-2.1288,-2.1296,-2.1296,-2.1296,-2.1294,-2.1296,-2.1295,-2.1295,0,0,0,-2.1251,-2.1252,-2.1255,-2.126,-2.1267,-2.1273,-2.1281,-2.1284,-2.1291,-2.1291,-2.1297,-2.1296,-2.1297,-2.1297,-2.1297,-2.1298,-2.13,-2.13,-2.13,-2.1244,-2.125,-2.1254,-2.1262,-2.1267,-2.1276,-2.128,-2.1286,-2.129,-2.1292,-2.1294,-2.1293,-2.1293,-2.1292,-2.1293,-2.1294,-2.1294,-2.1294,-2.1294,-2.1244,-2.1247,-2.1254,-2.126,-2.1266,-2.1272,-2.128,-2.1283,-2.1289,-2.1291,-2.1292,-2.1294,-2.1292,-2.1293,-2.1294,-2.1294,-2.1294,-2.1294,-2.1294,-2.124,-2.1243,-2.1247,-2.1256,-2.1261,-2.1269,-2.1275,-2.1281,-2.1286,-2.1287,-2.129,-2.129,-2.129,-2.1288,-2.1288,-2.1288,-2.1288,-2.1288,-2.1288,-2.1234,-2.1239,-2.1243,-2.1252,-2.1256,-2.1262,-2.1272,-2.1276,-2.1282,-2.1286,-2.1286,-2.129,-2.1291,-2.1291,-2.1288,-2.1288,-2.1288,-2.1288,-2.1288,-2.1231,-2.1233,-2.1239,-2.1244,-2.1254,-2.126,-2.1267,-2.1276,-2.128,-2.1283,-2.1287,-2.1287,-2.1289,-2.1289,-2.1289,-2.1286,-2.1286,-2.1286,-2.1286,-2.1228,-2.123,-2.1238,-2.1244,-2.1251,-2.1259,-2.1266,-2.1274,-2.1282,-2.1286,-2.1287,-2.1288,-2.1288,-2.129,-2.129,-2.129,-2.1287,-2.1287,-2.1287,-2.1226,-2.1229,-2.1234,-2.1242,-2.1251,-2.1259,-2.1266,-2.1273,-2.1283,-2.1287,-2.1288,-2.1288,-2.1289,-2.1289,-2.1292,-2.1293,-2.1293,0,0]},{"header":{"parameterUnit":"m.s-1","parameterCategory":1,"la1":30.2992,"la2":30.254,"lo1":-89.0895,"lo2":-89.0443,"dy":0.0025,"dx":0.0025,"nx":19,"ny":19,"refTime":"2026-05-05T21:00:00:Z","depth":0,"parameterNumber":3,"parameterNumberName":"V-component_of_WINDS"},"data":[0,0,0,5.8094,5.8095,5.8137,5.8137,5.8201,5.8202,0,0,0,0,0,0,0,0,0,0,0,5.8089,5.809,5.8094,5.8095,5.8137,5.8137,5.8201,5.8202,0,0,0,0,0,0,0,0,0,0,0,5.8089,5.809,5.809,5.8095,5.8137,5.8137,5.8201,5.8165,0,0,0,0,0,0,0,0,0,0,5.8123,5.8126,5.8089,5.8091,5.8096,5.8137,5.8137,5.8163,5.8167,5.8187,0,5.8207,0,5.8206,5.8207,5.8207,0,0,0,5.8089,5.8122,5.8127,5.8091,5.8096,5.8137,5.8117,5.8165,5.817,5.8192,5.8208,5.821,5.8207,5.8207,5.8208,5.8341,5.8342,0,0,5.8087,5.81,5.8124,5.813,5.8126,5.8115,5.8118,5.8168,5.8185,5.8208,5.8211,5.8208,5.8208,5.8208,5.834,5.8341,0,0,0,5.8084,5.8099,5.8102,5.8128,5.8135,5.8117,5.812,5.8183,5.8183,5.8212,5.8208,5.8208,5.8209,5.8339,5.834,5.8397,0,0,0,5.8083,5.8097,5.8101,5.811,5.8134,5.816,5.8134,5.818,5.8185,5.8208,5.8208,5.821,5.8338,5.834,5.8393,5.8421,0,0,0,5.8084,5.8097,5.8106,5.8111,5.8129,5.8159,5.8161,5.8181,5.8183,5.8207,5.821,5.8337,5.8339,5.839,5.8415,5.8459,0,0,0,5.8088,5.8156,5.8107,5.8181,5.8129,5.8194,5.8161,5.8209,5.8236,5.8208,5.8338,5.834,5.8389,5.8412,5.8455,5.8497,5.8516,0,0,5.8181,5.8168,5.821,5.8168,5.8245,5.8187,5.8272,5.8284,5.8274,5.8319,5.8322,5.8394,5.8415,5.8458,5.862,5.8635,0,0,0,5.8244,5.8275,5.8292,5.8319,5.8331,5.8342,5.834,5.8344,5.8382,5.83,5.8422,5.8434,5.8459,5.8478,5.8491,5.851,5.835,5.835,5.835,5.8393,5.8377,5.8446,5.8435,5.8461,5.8458,5.8477,5.8483,5.8458,5.8488,5.85,5.8601,5.8623,5.8633,5.8654,5.8522,5.8522,5.8523,5.8523,5.8526,5.8566,5.8533,5.8587,5.8569,5.8615,5.8614,5.8595,5.8634,5.859,5.8611,5.8562,5.865,5.8667,5.8527,5.8526,5.8526,5.8525,5.8525,5.8621,5.8637,5.8642,5.8678,5.8708,5.8694,5.8733,5.8716,5.8699,5.872,5.8731,5.873,5.8725,5.8727,5.8727,5.8727,5.8728,5.8728,5.8728,5.8717,5.872,5.8755,5.8773,5.8787,5.8804,5.8802,5.8815,5.8825,5.8809,5.8809,5.8781,5.8663,5.8632,5.8733,5.8733,5.8732,5.8731,5.8731,5.8855,5.8821,5.8875,5.8889,5.8908,5.8938,5.8916,5.8944,5.8953,5.8972,5.894,5.8856,5.884,5.883,5.8805,5.8944,5.8944,5.8944,5.8944,5.8933,5.8924,5.8975,5.8999,5.9021,5.9006,5.9066,5.9065,5.9058,5.9062,5.9039,5.9005,5.8995,5.8985,5.8972,5.8947,5.9121,5.9121,5.9121,5.9017,5.9009,5.9064,5.9057,5.907,5.9082,5.9137,5.9165,5.915,5.9128,5.9064,5.9057,5.9001,5.8984,5.8958,5.8937,5.8893,0,0]}]]